User: anonymous   Login
Location: Cotdoussan
(43.0366°N, 0.0068°E)
Time: 08:22:34
(UTC+00:00)
Language:

MOS 1 - Orbit

View from above orbital plane
View from above orbital plane
View from above satellite
View from above satellite

Ground track
Ground track

The orbit is defined by the following mean orbital elements,

1 17527U          26128.18016360 +.00000000 +00000-0 -75740-4 0 00007
2 17527  98.8436 178.7452 0007490 307.2391 122.8461 14.03199709    08
Epoch (UTC): 08 May 2026 04:19:26
Eccentricity: 0.0007490
inclination: 98.8436°
perigee height: 877 km
apogee height: 888 km
right ascension of ascending node: 178.7452°
argument of perigee: 307.2391°
revolutions per day: 14.03199709
mean anomaly at epoch: 122.8461°

The dashed part of the orbit path shows where the satellite is in the earth's shadow,  

DLR